Location: The Saddle
(36.8333°N, 80.3417°W)
Time: 10:45:11
(UTC-05:00)

SR - Pass Details

Date: 13 December 2023
Orbit: 574 x 867 km, 66.7° (Epoch: 03 March)

Event Time Altitude Azimuth Distance (km) Brightness Sun altitude
Rises 18:34:47 0° 334° (NNW) 3,423 ? -17.3°
Maximum altitude 18:43:02 71° 61° (ENE) 849 ? -18.9°
Drops below altitude 10° 18:48:16 10° 145° (SE) 2,277 ? -19.9°
Sets 18:50:34 0° 148° (SSE) 3,152 ? -20.3°
